sat.trackr.live / text

‹ back to catalog

STARLINK-36167

NORAD 67011 · 2025-293J

PAYLOAD ACTIVE UNKNOWN

§ Identity

Operator
Country
US
Launch date
2025-12-10
Launch site
AFWTR
Launch vehicle
Mass (kg)
RCS (m²)

Purposes: comms

External: N2YO · Heavens-Above · Gunter

§ Orbital elements

Epoch: 2026-09-20T21:49:35.400000Z

Period
96.11 min
Inclination
70.0016°
Eccentricity
0.0003962
Mean motion
14.98334598 rev/d
Perigee alt
569.3 km
Apogee alt
574.8 km
Semi-major
6,950.2 km
B*
2.0400e-4
RAAN
322.0858°
Arg perigee
269.7711°
Mean anomaly
90.2994°
Rev number
4,413

§ Raw data

STARLINK-361671 67011U 25293J   26263.90943750  .00002342  00000+0  20400-3 0  99912 67011  70.0016 322.0858 0003962 269.7711  90.2994 14.98334598 44131

JSON: /api/v1/satellites/67011 · /tle

For live sub-satellite position, see the globe view (requires WebGL).

§ Visibility from observer

Set your observer location to see the next 7 days of passes ≥ 10°. The values pass through the URL so the page stays shareable.

No JS? Fill the form by hand. The geolocation button needs JavaScript.